Simultaneous Nadir Overpasses (SNOs) Predictions

Prediction of SNOs between GOES-16 and AQUA Satellite Orbit:

Table of predicted SNOs for the next 14.0 days since TLE Epoch: 8/10/2019
Index Date Time (GOES-16) GOES-16 Lat,Lon AQUA Lat,Lon Distance(km) Time Diff (sec)
1 08/10/2019 18:35:11 0.03, -75.17 0.13, -74.61 63.50 80
2 08/12/2019 18:23:00 0.04, -75.17 0.81, -71.66 399.45 80
3 08/13/2019 06:44:16 -0.04, -75.17 0.28, -76.82 187.23 80
4 08/15/2019 06:29:24 -0.05, -75.18 -0.34, -73.86 149.71 80
5 08/15/2019 18:50:46 0.05, -75.18 -0.80, -79.04 440.12 80
6 08/17/2019 06:17:12 -0.05, -75.19 -0.96, -70.90 487.40 80
7 08/17/2019 18:38:35 0.05, -75.19 -0.12, -76.10 102.22 80
8 08/19/2019 18:29:04 0.05, -75.22 0.51, -73.14 236.40 80
9 08/20/2019 06:50:19 -0.05, -75.22 0.58, -78.30 349.42 80
10 08/22/2019 06:38:07 -0.05, -75.25 -0.05, -75.34 10.53 80




NCC Satellite Simultaneous Nadir Overpasses (SNOs) Prediction Service
